Regional Weather Roundup
Issued by NWS

Home | Current Version | Previous Version | Graphics & Text | Print | Product List | Glossary On
Versions: 1 2 3 4 5 6 7 8 9 10 11 12 13 14 15 16 17 18 19 20 21 22 23 24 25 26 27 28 29 30 31 32 33 34 35 36 37 38 39 40 41 42 43 44 45 46 47 48 49 50
000
ASUS43 KMPX 251110
RWRMN
WEATHER ROUNDUP FOR MINNESOTA
NATIONAL WEATHER SERVICE TWIN CITIES/CHANHASSEN MN
500 AM CST THU DEC 25 2014


NOTE: "FAIR" INDICATES FEW OR NO CLOUDS BELOW 12,000 FEET WITH NO
SIGNIFICANT WEATHER AND/OR OBSTRUCTIONS TO VISIBILITY. N/A MEANS
CURRENT SKY AND/OR WEATHER CONDITIONS ARE NOT AVAILABLE.

MNZ060>063-068>070-251200-
   Twin Cities Metro

CITY           SKY/WX    TMP DP  RH WIND       PRES   REMARKS
TWIN CITIES    CLOUDY    30  25  81 S8        29.63S WCI  22
ST PAUL        CLOUDY    30  26  85 S8        29.65S WCI  22
CRYSTAL        CLOUDY    31  26  82 S10G18    29.60S WCI  22
BLAINE         CLOUDY    32  30  93 S9        29.61S WCI  24
LAKEVILLE      CLOUDY    28  27  93 S9        29.64R WCI  20
EDEN PRAIRIE   CLOUDY    30  26  85 S13       29.62S WCI  20
SOUTH ST PAUL  CLOUDY    31  28  86 S9        29.64S WCI  23
LAKE ELMO      CLOUDY    32  30  93 S10       29.64R WCI  24
$$
MNZ001>005-007-008-013>017-022>024-027-028-251200-
   Northwest Minnesota

CITY           SKY/WX    TMP DP  RH WIND       PRES   REMARKS
BEMIDJI        CLOUDY    29  27  92 SW7       29.48S WCI  22
HALLOCK        CLOUDY    30  27  86 W8        29.50R WCI  23
ROSEAU         CLOUDY    30  25  80 W7        29.47R WCI  23
WARROAD        CLOUDY    28  27  93 W8        29.47R FOG     WCI  20
THIEF RVR FALL CLOUDY    28  27  93 W8        29.51R WCI  20
CROOKSTON      CLOUDY    28  27  93 NW7       29.55R WCI  21
FOSSTON        CLOUDY    27  27 100 W10       29.51R WCI  17
DETROIT LAKES  CLOUDY    30  30 100 SW7       29.53R WCI  23
MOORHEAD       CLOUDY    27  27 100 SW5       29.57R WCI  21
PARK RAPIDS    CLOUDY    29  27  92 SW10      29.50R WCI  20
MAHNOMEN       CLOUDY    28  27  94 W13       29.52R WCI  18
$$
MNZ006-009>011-018-025>026-251200-
   North Central Minnesota

CITY           SKY/WX    TMP DP  RH WIND       PRES   REMARKS
BAUDETTE       CLOUDY    29  27  92 SW7       29.46R WCI  22
FLAG ISLAND    CLOUDY    28  27  93 SW10      29.44R FOG     WCI  19
INTL FALLS     CLOUDY    30  27  88 W8        29.46R WCI  22
WASKISH        CLOUDY    30  28  93 SW8       29.48R WCI  23
BIG FORK       CLOUDY    30  27  86 SW9       29.47F WCI  22
LONGVILLE      CLOUDY    30  27  86 SW8       29.51R WCI  23
GRAND RAPIDS   CLOUDY    30  25  80 SW8       29.49S WCI  23
CRANE LAKE     CLOUDY    28  27  93 CALM      29.49R
ORR            CLOUDY    28  25  86 SW3       29.45R
COOK           CLOUDY    30  27  86 SW9       29.48R WCI  22
WALKER         CLOUDY    29  26  90 SW7       29.50R WCI  22
$$
MNZ012-019>021-037-251200-
   Northeast Minnesota

CITY           SKY/WX    TMP DP  RH WIND       PRES   REMARKS
DULUTH         CLOUDY    31  26  82 SW13      29.51R WCI  21
ELY            CLOUDY    30  28  93 SW6       29.47R WCI  24
HIBBING        CLOUDY    31  26  82 VRB6      29.49S WCI  25
EVELETH        CLOUDY    32  30  93 SW10      29.50R WCI  24
DULUTH HARBOR  CLOUDY    34  28  80 SW10      29.56R WCI  26
TWO HARBORS    CLOUDY    34  28  80 SW10      29.50R WCI  26
SILVER BAY     CLOUDY    34  28  80 S5        29.49R WCI  30
GRAND MARAIS     N/A     33  30  88 W6        29.50R WCI  28
G MARAIS ARPRT CLOUDY    27  25  93 CALM      29.45S
$$
MNZ029>031-032-039>041-046>048-054>057-064-251200-
   West Central Minnesota

CITY           SKY/WX    TMP DP  RH WIND       PRES   REMARKS
FERGUS FALLS   CLOUDY    28  28 100 SW6       29.59R WCI  22
WHEATON        CLOUDY    28  27  93 SW5       29.60R WCI  23
MORRIS         CLOUDY    28  27  93 S7        29.56R FOG     WCI  21
ALEXANDRIA     CLOUDY    28  26  92 SW10      29.56R WCI  19
ELBOW LAKE     CLOUDY    28  27  95 S7        29.56R WCI  21
WADENA         CLOUDY    28  27  93 SW9       29.53R WCI  20
GLENWOOD       MOCLDY    28  27  93 SW6       29.57R WCI  22
APPLETON       CLOUDY    30  27  86 S3        29.57S
BENSON         CLOUDY    28  27  93 SW6       29.58R WCI  22
ORTONVILLE     FLURRIES  30  27  86 SW3       29.57R
MADISON          N/A     34  30  86 CALM      29.57R
WILLMAR        CLOUDY    30  27  86 SW5       29.59S WCI  25
$$
MNZ033>034-036-042>043-049>051-058-059-251200-
   Central Minnesota

CITY           SKY/WX    TMP DP  RH WIND       PRES   REMARKS
ST CLOUD       CLOUDY    32  26  78 S12       29.58R WCI  23
SAUK CENTRE    CLOUDY    28  27  93 SW10      29.57R WCI  19
PAYNESVILLE    CLOUDY    27  26  96 S6        29.59R WCI  20
AITKIN         CLOUDY    34  27  75 SW8       29.52R WCI  27
PINE RIVER     CLOUDY    28  27  93 SW5       29.56R WCI  23
BRAINERD       CLOUDY    29  26  89 SW9       29.54R WCI  20
STAPLES        CLOUDY    28  27  93 SW6       29.54R WCI  22
LONG PRAIRIE   CLOUDY    28  27  93 W10       29.56R WCI  19
LITTLE FALLS   CLOUDY    30  27  86 SW6       29.57R WCI  24
LITCHFIELD     CLOUDY    30  28  93 SW3       29.59S
BUFFALO        CLOUDY    30  27  88 S7        29.62R WCI  23
MAPLE LAKE     CLOUDY    31  29  92 S5        29.60S WCI  26
$$
MNZ037-044-045-052-053-251200-
   East Central Minnesota

CITY           SKY/WX    TMP DP  RH WIND       PRES   REMARKS
PRINCETON      CLOUDY    30  27  86 S6        29.59R WCI  24
MORA           CLOUDY    32  28  86 SW7       29.59R WCI  26
CAMBRIDGE      CLOUDY    32  25  74 S12       29.58R WCI  23
RUSH CITY      CLOUDY    31  28  89 S6        29.59R WCI  25
MOOSE LAKE     CLOUDY    32  28  86 SW8       29.52S WCI  25
HINCKLEY       CLOUDY    32  30  93 CALM      29.57R
CLOQUET        CLOUDY    30  28  93 SW8       29.52S WCI  23
MCGREGOR       CLOUDY    32  28  86 SW7       29.53S WCI  26
$$
MNZ071>073-080-081-089-090-097-098-251200-
   Southwest Minnesota

CITY           SKY/WX    TMP DP  RH WIND       PRES   REMARKS
MONTEVIDEO     CLOUDY    28  28 100 SW6       29.59S WCI  22
GRANITE FALLS  CLOUDY    30  28  92 S6        29.60R WCI  24
CANBY          MOCLDY    30  27  90 CALM      29.58R
MARSHALL       PTCLDY    28  25  86 S5        29.58R WCI  23
REDWOOD FALLS  CLOUDY    30  27  88 S8        29.60R WCI  22
OLIVIA         CLOUDY    28  27  93 S7        29.59S FOG     WCI  21
PIPESTONE      CLOUDY    28  27  93 S3        29.54S
WINDOM         MOCLDY    28  27  93 S6        29.58S WCI  22
WORTHINGTON    MOCLDY    27 -20  12 S9        29.58R WCI  17
JACKSON        PTCLDY    30  28  93 S10       29.59S WCI  21
TRACY          CLOUDY    31  28  91 S6        29.57R WCI  25
SLAYTON        CLOUDY    28  27  94 S8        29.56F WCI  20
$$
MNZ065>067-074>077-082>085-091>093-251200-
   South Central Minnesota

CITY           SKY/WX    TMP DP  RH WIND       PRES   REMARKS
MANKATO        CLOUDY    28  25  86 S13       29.63S WCI  18
NEW ULM        CLOUDY    28  27  93 S10       29.61S WCI  19
ST JAMES       CLOUDY    30  28  93 S8        29.62F WCI  23
FAIRMONT       CLOUDY    28  25  86 S15       29.61S WCI  17
GLENCOE        CLOUDY    30  29  95 S10       29.61R FOG     WCI  21
FARIBAULT      CLOUDY    28  27  93 S8        29.65R WCI  20
OWATONNA       CLOUDY    28  27  93 S13       29.65S WCI  18
ALBERT LEA     CLOUDY    28  28 100 S10G16    29.65R FOG     WCI  19
$$
MNZ078>079-086>088-094>096-251200-
   Southeast Minnesota

CITY           SKY/WX    TMP DP  RH WIND       PRES   REMARKS
ROCHESTER      CLOUDY    27  25  92 SW15      29.67R WCI  15
RED WING       CLOUDY    30  27  86 SW10      29.66R WCI  21
STANTON        CLOUDY    31  27  86 SW13      29.64R WCI  21
DODGE CENTER   CLOUDY    28  27  93 S12       29.65R WCI  18
WINONA         CLOUDY    32  28  86 W3        29.71R
AUSTIN         CLOUDY    28  27  93 S12       29.66S WCI  18
PRESTON        CLOUDY    27  26  94 SW14      29.68S WCI  16
$$
ABBREVIATIONS USED IN REMARKS
   TC - TEMPERATURES IN CELSIUS
  WCI - WIND CHILL INDEX
   HX - HEAT INDEX
  VSB - VISIBILITY
$$



USA.gov is the U.S. government's official web portal to all federal, state and local government web resources and services.